Regional Weather Roundup
Issued by NWS

Home | Current Version | Previous Version | Graphics & Text | Print | Product List | Glossary On
Versions: 1 2 3 4 5 6 7 8 9 10 11 12 13 14 15 16 17 18 19 20 21 22 23 24 25 26 27 28 29 30 31 32 33 34 35 36 37 38 39 40 41 42 43 44 45 46 47 48 49 50
024
ASUS44 KJAN 020903
RWRMS

MISSISSIPPI HOURLY WEATHER ROUNDUP
NATIONAL WEATHER SERVICE JACKSON MS
400 AM CDT TUE SEP 02 2014

NOTE: "FAIR: INDICATES FEW OR NO CLOUDS BELOW 12,000 FEET WITH NO
SIGNIFICANT WEATHER AND/OR OBSTRUCTIONS TO VISIBILITY.

MSZ001>002-007>008-010>013-018>021-025>028-034>036-021000-
NORTHWEST MISSISSIPPI

CITY           SKY/WX    TMP DP  RH WIND       PRES   REMARKS
CLARKSDALE     FAIR      75  75 100 CALM      29.98F
CLEVELAND      FAIR      75  75  99 S7        29.98S
GREENWOOD      PTCLDY    75  72  90 S8        30.00F
GREENVILLE     CLEAR     75  73  93 S7        29.98F
GRENADA        FAIR      73  72  94 S5        30.00F
OLIVE BRANCH   CLEAR     73  73 100 S6        30.00R
OXFORD         FAIR      73  70  88 S5        30.02F
TUNICA         MOSUNNY   73  72  94 S6        29.98F
$$

MSZ003>006-009-014>017-022>024-029>033-037>039-021000-
NORTHEAST MISSISSIPPI

CITY           SKY/WX    TMP DP  RH WIND       PRES   REMARKS
BELMONT        FAIR      74  71  89 CALM      30.04F
COLUMBUS AFB   PTCLDY    73  72  99 SE3       30.04F
CORINTH        FAIR      75  70  83 S5        30.01S
GOLDN TRIANGLE PTCLDY    73  70  88 CALM      30.05F
STARKVILLE     FAIR      70  68  94 CALM      30.04F
TUPELO         PTCLDY    74  70  87 SW6       30.02F
$$

MSZ040-058-021000-
CENTRAL MISSISSIPPI

CITY           SKY/WX    TMP DP  RH WIND       PRES   REMARKS
JACKSON INTL   MOCLDY    76  74  93 S6        30.02F
JACKSON HAWKNS CLOUDY    76  73  91 S6        30.03F
MERIDIAN KEY   CLOUDY    74  72  93 CALM      30.05S
MERIDIAN NAS   CLOUDY    74  72  93 CALM      30.05S
RAYMOND        FAIR      75  70  83 CALM      30.02F
VICKSBURG      MOCLDY    76  74  93 S3        30.00F
$$

MSZ059>079-021000-
SOUTH MISSISSIPPI

CITY           SKY/WX    TMP DP  RH WIND       PRES   REMARKS
BROOKHAVEN     PTSUNNY   75  75 100 CALM      30.05F FOG
HATTIESBURG    MOCLDY    76  73  91 CALM      30.05S
MCCOMB         MOCLDY    75  74  96 CALM      30.03S
NATCHEZ        MOCLDY    75  73  94 S5        30.02F
PINE BELT      MOCLDY    73  72  94 CALM      30.06S
$$

MSZ080>082-021000-
COASTAL MISSISSIPPI

CITY           SKY/WX    TMP DP  RH WIND       PRES   REMARKS
BILOXI         PTCLDY    81  76  83 SW5       30.03R
PASCAGOULA     CLEAR     74  74 100 CALM      30.03R FOG
GULFPORT       PTCLDY    81  76  84 NW3       30.02R
$$



USA.gov is the U.S. government's official web portal to all federal, state and local government web resources and services.